weather.gov     
National Weather Service

Regional Weather Roundup
NWS Homepage
This page is being discontinued on March 12, 2014.
The same data is available at this site. Please update your bookmarks.
Thank you, and we apologize for the inconvenience.
Please send an email to SR-SRH.Webmaster@noaa.gov with any concerns.


Current Version
Previous Version:    01  02  03  04  05  06  07  08  09  10  11  12  13  14  15  16  17  18  19  20  21  22  23  24  25  26  
[Printable]
858
ASUS45 KREV 222310
RWRNV
NEVADA REGIONAL WEATHER ROUNDUP
NATIONAL WEATHER SERVICE RENO NV
400 PM PDT FRI AUG 22 2014

NOTE: "FAIR" INDICATES FEW OR NO CLOUDS BELOW 12,000 FEET WITH NO
SIGNIFICANT WEATHER AND/OR OBSTRUCTIONS TO VISIBILITY.

NVZ001-003-004-230000-
WESTERN NEVADA

CITY           SKY/WX    TMP DP  RH WIND       PRES   REMARKS
RENO           MOSUNNY   85  32  15 W18G24    29.94S
CARSON CITY    FAIR      81  34  18 W14G21    29.97F
MINDEN         FAIR      82  32  16 W23G35    29.98
SLIDE MTN        N/A     57  36  44 W21         N/A
FALLON         MOSUNNY   90  29  11 W24       29.86S
LOVELOCK       MOSUNNY   87  31  13 W17G30    29.86F
HAWTHORNE      SUNNY     91  30  11 SW22      29.87F
$$

NVZ002-CAZ072-073-230000-
NORTHERN AND CENTRAL SIERRA

CITY           SKY/WX    TMP DP  RH WIND       PRES   REMARKS
S. LAKE TAHOE  SUNNY     73  33  23 S17G26    30.09S
TRUCKEE        MOSUNNY   73  37  27 SW18G28   30.07S
SQUAW VLY 8000   N/A     59  34  38 VRB15       N/A
BLUE CANYON    SUNNY     72  38  29 S15G23    30.09F
MAMMOTH LAKES  FAIR      75  30  19 W23G32    30.15S
BRIDGEPORT     FAIR      72  33  24 S17G31    30.10S
$$

NVZ030-031-036-230000-
NORTHERN NEVADA

CITY           SKY/WX    TMP DP  RH WIND       PRES   REMARKS
ELKO           MOSUNNY   78  34  20 NW13      29.92S
WINNEMUCCA     MOSUNNY   84  25  11 W16G25    29.90S
WENDOVER       MOSUNNY   70  50  49 S12       29.96R
$$

NVZ035-037-230000-
CENTRAL NEVADA

CITY           SKY/WX    TMP DP  RH WIND       PRES   REMARKS
ELY            TSTM      54  51  90 NE16      30.04R FOG
EUREKA           N/A     78  41  26 VRB5      29.96F
$$

NVZ013-014-230000-
SOUTH CENTRAL NEVADA

CITY           SKY/WX    TMP DP  RH WIND       PRES   REMARKS
TONOPAH        MOSUNNY   85  41  21 SW16G31   29.96F
$$

NVZ017-020-022-230000-
SOUTHERN NEVADA

CITY           SKY/WX    TMP DP  RH WIND       PRES   REMARKS
LAS VEGAS      MOSUNNY   93  51  23 S15G24    29.81F
N. LAS VEGAS   SUNNY     92  50  23 S17G24    29.83F
NELLIS AFB     SUNNY     93  54  26 S14G21    29.82F
HENDERSON      SUNNY     93  53  25 S18G24    29.87F
MERCURY        SUNNY     92  41  17 S17G28    29.88F
$$




U.S. Dept. of Commerce
NOAA National Weather Service
1325 East West Highway
Silver Spring, MD 20910
E-mail: w-nws.webmaster@noaa.gov
Page last modified: May 16, 2007
NATIONAL WEATHER SERVICE: for Safety, for Work, for Fun - FOR LIFE